This is the latest recevied weather packets stored in our database for station/object NK7E. If no packets are shown the sender has not sent any weather packets the latest 10 day(s).
| Time | Temp. | Humidity | Pressure | Rain* | Wind** | Luminosity | Snow |
|---|---|---|---|---|---|---|---|
| 1778005215 | 20° C | 56% | 1012.7 hPa | 0 mm | - | 325 W/m² | - |
| 1778004615 | 19.44° C | 59% | 1012.7 hPa | 0 mm | - | 354 W/m² | - |
| 1778004020 | 20° C | 58% | 1012.8 hPa | 0 mm | - | 368 W/m² | - |
| 1778003416 | 19.44° C | 59% | 1012.8 hPa | 0 mm | - | 817 W/m² | - |
| 1778002815 | 19.44° C | 59% | 1012.8 hPa | 0 mm | - | 307 W/m² | - |
| 1778002216 | 18.89° C | 62% | 1012.8 hPa | 0 mm | - | 759 W/m² | - |
| 1778001615 | 18.33° C | 64% | 1012.8 hPa | 0 mm | - | 382 W/m² | - |
| 1778001015 | 18.33° C | 64% | 1012.8 hPa | 0 mm | - | 360 W/m² | - |
| 1778000416 | 18.33° C | 65% | 1012.7 hPa | 0 mm | - | 484 W/m² | - |
| 1777999815 | 17.78° C | 65% | 1012.8 hPa | 0 mm | - | 429 W/m² | - |
| 1777999215 | 17.78° C | 70% | 1012.7 hPa | 0 mm | - | 454 W/m² | - |
| 1777998615 | 16.67° C | 75% | 1012.9 hPa | 0 mm | - | 774 W/m² | - |
| 1777998021 | 16.67° C | 76% | 1013 hPa | 0 mm | - | 143 W/m² | - |
| 1777997415 | 16.67° C | 76% | 1013 hPa | 0 mm | - | 108 W/m² | - |
| 1777996815 | 16.67° C | 76% | 1012.8 hPa | 0 mm | - | 143 W/m² | - |
| 1777996215 | 16.67° C | 77% | 1012.6 hPa | 0 mm | - | 192 W/m² | - |
| 1777995615 | 16.11° C | 77% | 1012.6 hPa | 0 mm | - | 189 W/m² | - |
| 1777995015 | 16.11° C | 77% | 1012.7 hPa | 0 mm | - | 150 W/m² | - |
| 1777994415 | 16.11° C | 77% | 1012.7 hPa | 0 mm | - | 138 W/m² | - |
| 1777993815 | 16.11° C | 79% | 1012.7 hPa | 0 mm | - | 161 W/m² | - |
| 1777993215 | 15.56° C | 79% | 1012.6 hPa | 0 mm | - | 74 W/m² | - |
| 1777992617 | 16.11° C | 80% | 1012.5 hPa | 0 mm | - | 68 W/m² | - |
| 1777992017 | 15.56° C | 79% | 1012.3 hPa | 0 mm | - | 58 W/m² | - |
| 1777991727 | 15.56° C | 78% | - | 0 mm | - | 69 W/m² | - |
| 1777991117 | 15.56° C | 76% | 1012.2 hPa | 0 mm | - | 58 W/m² | - |
* Rain latest hour (hover to see other rain measurements)
** Current wind speed in m/s (hover to see current wind gust speed)